| time (UTC) | temp F | wind direction | speed MPH | gust MPH | rain 1hr in | rain 24hr in | rain mn in | humidity % | barometer mb |
| 20260505013948 | 52 | 235 | 0.0 | 0.0 | 0.00 | 0.00 | 0.00 | 91 | 975.0 |
| 20260505013445 | 53 | 235 | 0.0 | 0.0 | 0.00 | 0.00 | 0.00 | 89 | 975.1 |
| 20260505012943 | 53 | 235 | 0.0 | 0.0 | 0.00 | 0.00 | 0.00 | 89 | 975.0 |
| 20260505012441 | 54 | 235 | 0.0 | 0.0 | 0.00 | 0.00 | 0.00 | 88 | 974.9 |
| 20260505011937 | 53 | 235 | 0.0 | 0.0 | 0.00 | 0.00 | 0.00 | 88 | 974.9 |
| 20260505011433 | 54 | 235 | 0.0 | 0.0 | 0.00 | 0.00 | 0.00 | 88 | 975.0 |
| 20260505010930 | 55 | 235 | 0.0 | 0.0 | 0.00 | 0.00 | 0.00 | 86 | 974.9 |
| 20260505010426 | 55 | 235 | 0.0 | 0.0 | 0.00 | 0.00 | 0.00 | 86 | 975.0 |
| 20260505005922 | 55 | 235 | 0.0 | 0.0 | 0.00 | 0.00 | 0.00 | 84 | 974.9 |
| 20260505005419 | 56 | 235 | 0.0 | 0.0 | 0.00 | 0.00 | 0.00 | 84 | 974.9 |
| 20260505004917 | 56 | 235 | 0.0 | 0.0 | 0.00 | 0.00 | 0.00 | 83 | 975.1 |
| 20260505004413 | 57 | 235 | 0.0 | 0.0 | 0.00 | 0.00 | 0.00 | 80 | 974.9 |
| 20260505003910 | 58 | 235 | 0.0 | 0.0 | 0.00 | 0.00 | 0.00 | 79 | 975.1 |
| 20260505003407 | 58 | 235 | 0.0 | 0.0 | 0.00 | 0.00 | 0.00 | 79 | 974.9 |
| 20260505002903 | 59 | 235 | 0.0 | 0.0 | 0.00 | 0.00 | 0.00 | 78 | 974.7 |
| 20260505002400 | 59 | 235 | 0.0 | 0.0 | 0.00 | 0.00 | 0.00 | 76 | 974.9 |
| 20260505001858 | 60 | 235 | 0.0 | 1.0 | 0.00 | 0.00 | 0.00 | 75 | 975.0 |
| 20260505001355 | 61 | 235 | 0.0 | 0.0 | 0.00 | 0.00 | 0.00 | 73 | 975.0 |
| 20260505000853 | 62 | 235 | 0.0 | 0.0 | 0.00 | 0.00 | 0.00 | 71 | 974.8 |
| 20260505000351 | 63 | 235 | 0.0 | 0.0 | 0.00 | 0.00 | 0.00 | 68 | 975.1 |
| 20260504235847 | 64 | 235 | 1.0 | 1.0 | 0.00 | 0.00 | 0.00 | 64 | 975.0 |
| 20260504235344 | 64 | 235 | 0.0 | 1.0 | 0.00 | 0.00 | 0.00 | 64 | 975.0 |
| 20260504234840 | 65 | 235 | 0.0 | 2.0 | 0.00 | 0.00 | 0.00 | 59 | 975.1 |
| 20260504234338 | 65 | 235 | 1.0 | 1.0 | 0.00 | 0.00 | 0.00 | 57 | 975.1 |
| 20260504233834 | 66 | 245 | 0.0 | 2.0 | 0.00 | 0.00 | 0.00 | 57 | 975.0 |
| 20260504233330 | 67 | 225 | 2.0 | 2.0 | 0.00 | 0.00 | 0.00 | 57 | 975.0 |
| 20260504232827 | 67 | 248 | 0.0 | 3.0 | 0.00 | 0.00 | 0.00 | 57 | 975.0 |
| 20260504232324 | 68 | 248 | 0.0 | 2.0 | 0.00 | 0.00 | 0.00 | 55 | 975.1 |
| 20260504231821 | 68 | 248 | 2.0 | 3.0 | 0.00 | 0.00 | 0.00 | 51 | 974.9 |
| 20260504231317 | 69 | 152 | 3.0 | 3.0 | 0.00 | 0.00 | 0.00 | 50 | 975.3 |
| 20260504230813 | 69 | 205 | 2.0 | 2.0 | 0.00 | 0.00 | 0.00 | 49 | 975.0 |
| 20260504230311 | 70 | 143 | 1.0 | 3.0 | 0.00 | 0.00 | 0.00 | 48 | 975.2 |
| 20260504225810 | 70 | 141 | 3.0 | 4.0 | 0.00 | 0.00 | 0.00 | 49 | 975.2 |
| 20260504225306 | 71 | 103 | 1.0 | 2.0 | 0.00 | 0.00 | 0.00 | 48 | 975.0 |
| 20260504224803 | 71 | 105 | 1.0 | 2.0 | 0.00 | 0.00 | 0.00 | 48 | 975.2 |
| 20260504224300 | 71 | 62 | 1.0 | 3.0 | 0.00 | 0.00 | 0.00 | 48 | 975.3 |
| 20260504223757 | 71 | 189 | 0.0 | 3.0 | 0.00 | 0.00 | 0.00 | 47 | 975.2 |
| 20260504223252 | 70 | 96 | 0.0 | 2.0 | 0.00 | 0.00 | 0.00 | 50 | 975.2 |
| 20260504222749 | 70 | 102 | 2.0 | 3.0 | 0.00 | 0.00 | 0.00 | 51 | 975.1 |
| 20260504222246 | 71 | 212 | 1.0 | 6.0 | 0.00 | 0.00 | 0.00 | 52 | 975.3 |
| 20260504221744 | 71 | 136 | 5.0 | 6.0 | 0.00 | 0.00 | 0.00 | 49 | 975.1 |
| 20260504221241 | 72 | 184 | 2.0 | 7.0 | 0.00 | 0.00 | 0.00 | 46 | 975.2 |
| 20260504220738 | 73 | 113 | 2.0 | 3.0 | 0.00 | 0.00 | 0.00 | 47 | 975.0 |
| 20260504220235 | 72 | 290 | 0.0 | 2.0 | 0.00 | 0.00 | 0.00 | 48 | 975.0 |
| 20260504215732 | 71 | 290 | 3.0 | 7.0 | 0.00 | 0.00 | 0.00 | 48 | 975.1 |
| 20260504215228 | 71 | 167 | 0.0 | 2.0 | 0.00 | 0.00 | 0.00 | 49 | 975.2 |
| 20260504214724 | 71 | 179 | 0.0 | 1.0 | 0.00 | 0.00 | 0.00 | 48 | 975.3 |
| 20260504214221 | 71 | 244 | 1.0 | 6.0 | 0.00 | 0.00 | 0.00 | 47 | 975.1 |
| 20260504213718 | 71 | 112 | 0.0 | 3.0 | 0.00 | 0.00 | 0.00 | 47 | 974.9 |
| 20260504213214 | 72 | 57 | 4.0 | 4.0 | 0.00 | 0.00 | 0.00 | 46 | 974.8 |
| 20260504212711 | 72 | 98 | 1.0 | 6.0 | 0.00 | 0.00 | 0.00 | 46 | 974.5 |
| 20260504212208 | 72 | 115 | 4.0 | 7.0 | 0.00 | 0.00 | 0.00 | 47 | 975.0 |
| 20260504211705 | 73 | 149 | 6.0 | 11.0 | 0.00 | 0.00 | 0.00 | 45 | 974.7 |
| 20260504211201 | 74 | 153 | 1.0 | 3.0 | 0.00 | 0.00 | 0.00 | 46 | 975.0 |
| 20260504210659 | 74 | 264 | 1.0 | 4.0 | 0.00 | 0.00 | 0.00 | 45 | 974.9 |
| 20260504210155 | 73 | 34 | 2.0 | 3.0 | 0.00 | 0.00 | 0.00 | 45 | 975.0 |
| 20260504205653 | 73 | 118 | 5.0 | 6.0 | 0.00 | 0.00 | 0.00 | 45 | 974.8 |
| 20260504205150 | 71 | 130 | 6.0 | 10.0 | 0.00 | 0.00 | 0.00 | 48 | 975.0 |
| 20260504204648 | 71 | 157 | 1.0 | 7.0 | 0.00 | 0.00 | 0.00 | 50 | 974.9 |
| 20260504204147 | 70 | 182 | 1.0 | 7.0 | 0.00 | 0.00 | 0.00 | 51 | 975.1 |
| 20260504203645 | 70 | 331 | 0.0 | 2.0 | 0.00 | 0.00 | 0.00 | 52 | 974.8 |
| 20260504203143 | 70 | 331 | 0.0 | 1.0 | 0.00 | 0.00 | 0.00 | 55 | 974.8 |
| 20260504202642 | 70 | 331 | 1.0 | 2.0 | 0.00 | 0.00 | 0.00 | 56 | 975.0 |
| 20260504202140 | 70 | 280 | 1.0 | 2.0 | 0.00 | 0.00 | 0.00 | 54 | 975.2 |
| 20260504201636 | 69 | 144 | 0.0 | 0.0 | 0.00 | 0.00 | 0.00 | 54 | 975.0 |
| 20260504201134 | 69 | 144 | 0.0 | 4.0 | 0.00 | 0.00 | 0.00 | 52 | 975.1 |
| 20260504200631 | 70 | 108 | 1.0 | 3.0 | 0.00 | 0.00 | 0.00 | 53 | 975.3 |
| 20260504200128 | 71 | 44 | 2.0 | 8.0 | 0.00 | 0.00 | 0.00 | 47 | 975.3 |
| 20260504195624 | 71 | 163 | 3.0 | 8.0 | 0.00 | 0.00 | 0.00 | 48 | 975.3 |
| 20260504195120 | 71 | 85 | 5.0 | 8.0 | 0.00 | 0.00 | 0.00 | 45 | 975.2 |
| 20260504194617 | 73 | 130 | 3.0 | 6.0 | 0.00 | 0.00 | 0.00 | 45 | 975.2 |
| 20260504194113 | 72 | 97 | 1.0 | 4.0 | 0.00 | 0.00 | 0.00 | 48 | 975.4 |
| 20260504193609 | 73 | 264 | 5.0 | 9.0 | 0.00 | 0.00 | 0.00 | 44 | 975.3 |
| 20260504193108 | 73 | 152 | 2.0 | 3.0 | 0.00 | 0.00 | 0.00 | 44 | 975.3 |
| 20260504192606 | 72 | 146 | 2.0 | 3.0 | 0.00 | 0.00 | 0.00 | 46 | 975.1 |
| 20260504192104 | 72 | 187 | 1.0 | 6.0 | 0.00 | 0.00 | 0.00 | 44 | 975.1 |
| 20260504191602 | 73 | 113 | 5.0 | 10.0 | 0.00 | 0.00 | 0.00 | 48 | 975.1 |
| 20260504191057 | 74 | 293 | 1.0 | 9.0 | 0.00 | 0.00 | 0.00 | 41 | 975.1 |
| 20260504190554 | 74 | 114 | 3.0 | 4.0 | 0.00 | 0.00 | 0.00 | 46 | 975.1 |
| 20260504190050 | 73 | 140 | 2.0 | 6.0 | 0.00 | 0.00 | 0.00 | 48 | 975.2 |
| 20260504185547 | 73 | 94 | 1.0 | 6.0 | 0.00 | 0.00 | 0.00 | 42 | 975.2 |
| 20260504185043 | 72 | 124 | 5.0 | 14.0 | 0.00 | 0.00 | 0.00 | 45 | 975.2 |
| 20260504184539 | 73 | 96 | 2.0 | 10.0 | 0.00 | 0.00 | 0.00 | 43 | 975.5 |
| 20260504184034 | 72 | 161 | 7.0 | 9.0 | 0.00 | 0.00 | 0.00 | 45 | 975.7 |
| 20260504183532 | 72 | 106 | 2.0 | 8.0 | 0.00 | 0.00 | 0.00 | 45 | 975.6 |
| 20260504183030 | 72 | 173 | 5.0 | 8.0 | 0.00 | 0.00 | 0.00 | 44 | 975.6 |
| 20260504182526 | 71 | 122 | 3.0 | 4.0 | 0.00 | 0.00 | 0.00 | 45 | 975.6 |
| 20260504182024 | 71 | 129 | 3.0 | 11.0 | 0.00 | 0.00 | 0.00 | 45 | 975.8 |
| 20260504181521 | 71 | 96 | 2.0 | 15.0 | 0.00 | 0.00 | 0.00 | 48 | 975.8 |
| 20260504181019 | 70 | 121 | 1.0 | 11.0 | 0.00 | 0.00 | 0.00 | 48 | 976.2 |
| 20260504180518 | 71 | 167 | 5.0 | 9.0 | 0.00 | 0.00 | 0.00 | 51 | 976.4 |
| 20260504180016 | 70 | 266 | 3.0 | 9.0 | 0.00 | 0.00 | 0.00 | 46 | 976.2 |
| 20260504175513 | 69 | 114 | 3.0 | 10.0 | 0.00 | 0.00 | 0.00 | 46 | 976.0 |
| 20260504175010 | 69 | 100 | 4.0 | 9.0 | 0.00 | 0.00 | 0.00 | 49 | 976.4 |
| 20260504174508 | 69 | 97 | 5.0 | 10.0 | 0.00 | 0.00 | 0.00 | 48 | 976.5 |
| 20260504174005 | 68 | 165 | 5.0 | 13.0 | 0.00 | 0.00 | 0.00 | 51 | 976.5 |
| 20260504173501 | 69 | 161 | 1.0 | 8.0 | 0.00 | 0.00 | 0.00 | 48 | 976.8 |
| 20260504172959 | 68 | 149 | 2.0 | 8.0 | 0.00 | 0.00 | 0.00 | 52 | 976.7 |
| 20260504172454 | 67 | 192 | 3.0 | 9.0 | 0.00 | 0.00 | 0.00 | 50 | 977.0 |
| 20260504171951 | 67 | 225 | 3.0 | 6.0 | 0.00 | 0.00 | 0.00 | 50 | 977.0 |
| 20260504171448 | 66 | 130 | 5.0 | 8.0 | 0.00 | 0.00 | 0.00 | 51 | 976.9 |
| 20260504170945 | 67 | 76 | 7.0 | 10.0 | 0.00 | 0.00 | 0.00 | 52 | 977.1 |
| 20260504170441 | 67 | 124 | 2.0 | 7.0 | 0.00 | 0.00 | 0.00 | 52 | 977.2 |
| 20260504160401 | 64 | 134 | 2.0 | 6.0 | 0.00 | 0.00 | 0.00 | 55 | 978.6 |
| 20260504150825 | 64 | 204 | 4.0 | 6.0 | 0.00 | 0.00 | 0.00 | 53 | 978.3 |
| 20260504150322 | 64 | 59 | 3.0 | 6.0 | 0.00 | 0.00 | 0.00 | 51 | 978.4 |
| 20260504141252 | 64 | 126 | 4.0 | 10.0 | 0.00 | 0.00 | 0.00 | 52 | 978.5 |
| 20260504140748 | 63 | 273 | 2.0 | 4.0 | 0.00 | 0.00 | 0.00 | 48 | 978.5 |
| 20260504140244 | 63 | 154 | 6.0 | 9.0 | 0.00 | 0.00 | 0.00 | 50 | 978.5 |
| 20260504130713 | 60 | 106 | 3.0 | 3.0 | 0.00 | 0.00 | 0.00 | 51 | 978.5 |
| 20260504130209 | 60 | 111 | 3.0 | 6.0 | 0.00 | 0.00 | 0.00 | 52 | 978.5 |
| 20260504120133 | 51 | 101 | 0.0 | 0.0 | 0.00 | 0.00 | 0.00 | 82 | 978.5 |
| 20260504110600 | 44 | 101 | 0.0 | 0.0 | 0.00 | 0.00 | 0.00 | 98 | 978.7 |
| 20260504100522 | 44 | 101 | 0.0 | 0.0 | 0.00 | 0.00 | 0.00 | 97 | 979.0 |
| 20260504081915 | 46 | 101 | 0.0 | 0.0 | 0.00 | 0.00 | 0.00 | 93 | 979.4 |
| 20260504081412 | 46 | 101 | 0.0 | 0.0 | 0.00 | 0.00 | 0.00 | 93 | 979.5 |
| 20260504080908 | 46 | 101 | 0.0 | 0.0 | 0.00 | 0.00 | 0.00 | 92 | 979.4 |
| 20260504080405 | 46 | 101 | 0.0 | 0.0 | 0.00 | 0.00 | 0.00 | 92 | 979.4 |
| 20260504070332 | 47 | 101 | 0.0 | 0.0 | 0.00 | 0.00 | 0.00 | 80 | 980.2 |
| 20260504050721 | 43 | 227 | 0.0 | 0.0 | 0.00 | 0.00 | 0.00 | 88 | 980.0 |
| 20260504050218 | 43 | 227 | 0.0 | 0.0 | 0.00 | 0.00 | 0.00 | 86 | 980.1 |
| 20260504045715 | 43 | 227 | 0.0 | 0.0 | 0.00 | 0.00 | 0.00 | 88 | 980.2 |
| 20260504045215 | 44 | 227 | 0.0 | 0.0 | 0.00 | 0.00 | 0.00 | 89 | 980.1 |
| 20260504044713 | 44 | 227 | 0.0 | 0.0 | 0.00 | 0.00 | 0.00 | 88 | 980.3 |
| 20260504044210 | 44 | 227 | 0.0 | 0.0 | 0.00 | 0.00 | 0.00 | 87 | 980.0 |
| 20260504043707 | 44 | 227 | 0.0 | 0.0 | 0.00 | 0.00 | 0.00 | 85 | 980.0 |
| 20260504043204 | 44 | 227 | 0.0 | 0.0 | 0.00 | 0.00 | 0.00 | 85 | 980.1 |
| 20260504042701 | 44 | 227 | 0.0 | 0.0 | 0.00 | 0.00 | 0.00 | 86 | 980.1 |
| 20260504042158 | 44 | 227 | 0.0 | 0.0 | 0.00 | 0.00 | 0.00 | 85 | 980.2 |
| 20260504041653 | 44 | 227 | 0.0 | 0.0 | 0.00 | 0.00 | 0.00 | 84 | 979.9 |
| 20260504041149 | 44 | 227 | 0.0 | 0.0 | 0.00 | 0.00 | 0.00 | 82 | 980.1 |
| 20260504040647 | 44 | 227 | 0.0 | 0.0 | 0.00 | 0.00 | 0.00 | 85 | 980.2 |
| 20260504040144 | 45 | 227 | 0.0 | 0.0 | 0.00 | 0.00 | 0.00 | 85 | 980.2 |
| 20260504035640 | 45 | 227 | 0.0 | 0.0 | 0.00 | 0.00 | 0.00 | 85 | 980.2 |
| 20260504035137 | 45 | 227 | 0.0 | 0.0 | 0.00 | 0.00 | 0.00 | 85 | 980.2 |
| 20260504034635 | 45 | 227 | 0.0 | 0.0 | 0.00 | 0.00 | 0.00 | 86 | 980.0 |
| 20260504034132 | 45 | 227 | 0.0 | 0.0 | 0.00 | 0.00 | 0.00 | 86 | 980.2 |
| 20260504033629 | 45 | 227 | 0.0 | 0.0 | 0.00 | 0.00 | 0.00 | 85 | 980.2 |
| 20260504033127 | 45 | 227 | 0.0 | 0.0 | 0.00 | 0.00 | 0.00 | 86 | 980.2 |
| 20260504032623 | 45 | 227 | 0.0 | 0.0 | 0.00 | 0.00 | 0.00 | 84 | 980.2 |
| 20260504032120 | 45 | 227 | 0.0 | 0.0 | 0.00 | 0.00 | 0.00 | 85 | 980.1 |
| 20260504031618 | 45 | 227 | 0.0 | 0.0 | 0.00 | 0.00 | 0.00 | 81 | 980.3 |
| 20260504031114 | 45 | 227 | 0.0 | 0.0 | 0.00 | 0.00 | 0.00 | 84 | 980.1 |
| 20260504030611 | 45 | 227 | 0.0 | 0.0 | 0.00 | 0.00 | 0.00 | 85 | 980.2 |
| 20260504030108 | 45 | 227 | 0.0 | 0.0 | 0.00 | 0.00 | 0.00 | 82 | 980.2 |
| 20260504025604 | 44 | 227 | 0.0 | 0.0 | 0.00 | 0.00 | 0.00 | 80 | 980.3 |
| 20260504025101 | 45 | 227 | 0.0 | 0.0 | 0.00 | 0.00 | 0.00 | 82 | 980.3 |
| 20260504024558 | 45 | 227 | 0.0 | 0.0 | 0.00 | 0.00 | 0.00 | 82 | 980.3 |
| 20260504024055 | 45 | 227 | 0.0 | 0.0 | 0.00 | 0.00 | 0.00 | 76 | 980.2 |
| 20260504023551 | 45 | 227 | 0.0 | 0.0 | 0.00 | 0.00 | 0.00 | 77 | 980.3 |
| 20260504023047 | 46 | 227 | 0.0 | 0.0 | 0.00 | 0.00 | 0.00 | 78 | 980.4 |
| 20260504022543 | 46 | 227 | 0.0 | 0.0 | 0.00 | 0.00 | 0.00 | 76 | 980.2 |
| 20260504022040 | 46 | 227 | 0.0 | 0.0 | 0.00 | 0.00 | 0.00 | 76 | 980.3 |
| 20260504021537 | 47 | 227 | 0.0 | 0.0 | 0.00 | 0.00 | 0.00 | 81 | 980.5 |
| 20260504021034 | 47 | 227 | 0.0 | 0.0 | 0.00 | 0.00 | 0.00 | 78 | 980.3 |
| 20260504020531 | 47 | 227 | 0.0 | 0.0 | 0.00 | 0.00 | 0.00 | 79 | 980.2 |
| 20260504020028 | 47 | 227 | 0.0 | 0.0 | 0.00 | 0.00 | 0.00 | 78 | 980.3 |
| 20260504015524 | 47 | 227 | 0.0 | 0.0 | 0.00 | 0.00 | 0.00 | 78 | 980.4 |
| 20260504015020 | 48 | 227 | 0.0 | 0.0 | 0.00 | 0.00 | 0.00 | 78 | 980.3 |
| 20260504014516 | 48 | 227 | 0.0 | 0.0 | 0.00 | 0.00 | 0.00 | 78 | 980.3 |